DW5978 Whyalla SA AU current weather conditions

sailwx.info

Wind from 116 at 4 knots gusting 5

Air temperature 32.2° C
Dewpoint 7.8° C

Last reported at 2017-Dec-12 09:57 UTC.
Time now 2017-Dec-12 10:25 UTC

Location: S 33°01' E 137°32'.
View on Google Maps.

See reports from other nearby stations

  
Tides and Currents Weather Stations Pressure Air Temp Water Temp Dewpoint Dewpoint Depression Visibility Wind Speed Wind Dir Waves Ship Positions
date/time (UTC)wind fromknots sea level pressurealtimeterstation pressurevisibilityair tempwater tempwave heightnotes
2017-Dec-12 09:57 116 4 gusting 5 32.2
2017-Dec-12 09:42 098 2 gusting 6 33.9
2017-Dec-12 09:27 108 3 gusting 6 35.0
2017-Dec-12 09:12 151 4 gusting 7 35.0
2017-Dec-12 08:57 133 2 gusting 7 35.0
2017-Dec-12 08:42 126 5 gusting 8 35.0
2017-Dec-12 08:27 133 5 gusting 9 35.0
2017-Dec-12 08:12 137 4 gusting 11 35.6
2017-Dec-12 07:57 168 5 gusting 10 36.1
2017-Dec-12 07:42 132 6 gusting 10 36.7
2017-Dec-12 07:27 112 4 gusting 9 36.7
2017-Dec-12 07:12 137 6 gusting 13 36.7
2017-Dec-12 06:57 135 6 gusting 12 36.7
2017-Dec-12 06:42 137 6 gusting 12 37.2
2017-Dec-12 06:27 144 6 gusting 13 36.7
2017-Dec-12 06:12 143 6 gusting 12 36.7
2017-Dec-12 05:57 160 6 gusting 12 36.7
2017-Dec-12 05:42 120 6 gusting 13 36.7
2017-Dec-12 05:26 130 8 gusting 13 37.2
2017-Dec-12 05:12 140 7 gusting 14 36.7
2017-Dec-12 04:56 122 8 gusting 14 36.7
2017-Dec-12 04:41 162 7 gusting 16 36.7
2017-Dec-12 04:26 164 7 gusting 17 37.2
2017-Dec-12 04:11 145 10 gusting 18 36.7
2017-Dec-12 03:56 171 8 gusting 14 37.2
2017-Dec-12 03:42 071 3 gusting 11 37.2
2017-Dec-12 03:26 044 0 gusting 8 37.8
2017-Dec-12 03:11 066 6 gusting 10 37.8
2017-Dec-12 02:56 022 0 gusting 7 37.2
2017-Dec-12 02:41 340 4 gusting 11 37.2
2017-Dec-12 02:26 081 5 gusting 13 36.7
2017-Dec-12 02:11 074 0 gusting 13 37.2
2017-Dec-12 01:56 111 3 gusting 7 36.1
2017-Dec-12 01:41 059 2 gusting 10 36.7
2017-Dec-12 01:26 301 6 gusting 16 36.1
2017-Dec-12 01:11 354 4 gusting 13 35.6
2017-Dec-12 00:56 049 8 gusting 13 34.4
2017-Dec-12 00:41 355 8 gusting 11 34.4
2017-Dec-12 00:26 359 6 gusting 13 33.9
2017-Dec-12 00:11 020 6 gusting 13 33.3
2017-Dec-11 23:56 013 7 gusting 13 32.2
2017-Dec-11 23:41 079 4 gusting 10 31.7
2017-Dec-11 23:26 024 6 gusting 13 30.6
2017-Dec-11 23:11 008 6 gusting 9 30.0
2017-Dec-11 22:55 034 3 gusting 6 29.4
2017-Dec-11 22:40 029 2 gusting 4 28.9
2017-Dec-11 22:25 324 0 gusting 2 26.1
2017-Dec-11 22:10 325 0 gusting 2 25.0
2017-Dec-11 21:55 325 23.9
2017-Dec-11 21:40 324 0 gusting 1 22.8
2017-Dec-11 21:25 324 21.7
2017-Dec-11 21:10 335 0 gusting 2 20.6
2017-Dec-11 20:55 335 0 gusting 2 20.0
2017-Dec-11 20:40 335 0 gusting 2 19.4
2017-Dec-11 20:25 335 18.3
2017-Dec-11 20:10 335 17.8
2017-Dec-11 19:55 335 16.7
2017-Dec-11 19:40 335 16.7
2017-Dec-11 19:25 335 16.1
2017-Dec-11 19:10 335 16.1
2017-Dec-11 18:55 273 16.1
2017-Dec-11 18:40 240 16.7
2017-Dec-11 17:55 240 17.8
2017-Dec-11 17:40 240 0 gusting 2 17.8
2017-Dec-11 17:25 240 17.8
2017-Dec-11 17:10 240 18.3
2017-Dec-11 16:55 240 18.3
2017-Dec-11 16:40 240 17.8
2017-Dec-11 16:25 240 17.8
2017-Dec-11 16:10 240 17.8
2017-Dec-11 15:55 240 17.8
2017-Dec-11 15:40 240 18.9
2017-Dec-11 15:25 240 18.9
2017-Dec-11 15:09 240 19.4
2017-Dec-11 14:54 240 18.9
2017-Dec-11 14:39 240 0 gusting 3 20.0
2017-Dec-11 14:24 240 20.6
2017-Dec-11 14:09 214 1 gusting 3 21.1
2017-Dec-11 13:54 214 21.1
2017-Dec-11 13:39 189 21.1
2017-Dec-11 13:24 189 21.7
2017-Dec-11 13:09 189 22.2
2017-Dec-11 12:54 189 0 gusting 2 22.2
2017-Dec-11 12:39 197 0 gusting 4 22.8
2017-Dec-11 12:24 195 2 gusting 5 22.8
2017-Dec-11 12:09 195 1 gusting 6 22.8
2017-Dec-11 11:54 193 2 gusting 5 23.3
2017-Dec-11 11:39 195 1 gusting 6 23.3
2017-Dec-11 11:24 200 4 gusting 7 23.9
2017-Dec-11 11:09 193 4 gusting 8 23.9
2017-Dec-11 10:54 174 3 gusting 7 23.9
2017-Dec-11 10:39 185 3 gusting 8 23.9
2017-Dec-11 10:24 209 4 gusting 13 23.9
2017-Dec-11 10:10 204 6 gusting 11 24.4
2017-Dec-11 09:54 185 8 gusting 13 25.0
2017-Dec-11 09:39 189 5 gusting 10 26.1
2017-Dec-11 09:24 214 5 gusting 15 26.7
2017-Dec-11 09:09 228 6 gusting 12 26.7
2017-Dec-11 08:54 222 7 gusting 13 27.2
2017-Dec-11 08:39 200 5 gusting 10 27.8
2017-Dec-11 08:24 230 6 gusting 10 27.8
2017-Dec-11 08:09 193 6 gusting 10 27.2
2017-Dec-11 07:54 176 4 gusting 11 27.8
2017-Dec-11 07:39 168 6 gusting 12 28.3
2017-Dec-11 07:24 185 6 gusting 11 29.4
2017-Dec-11 07:09 161 4 gusting 9 30.6
2017-Dec-11 06:54 192 3 gusting 7 30.6
2017-Dec-11 06:39 137 3 gusting 9 30.0
2017-Dec-11 06:24 147 5 gusting 9 29.4
2017-Dec-11 06:09 172 4 gusting 9 30.0
2017-Dec-11 05:54 191 5 gusting 10 29.4
2017-Dec-11 05:39 204 4 gusting 10 29.4
2017-Dec-11 05:24 156 5 gusting 9 30.0
2017-Dec-11 05:09 156 5 gusting 9 30.0
2017-Dec-11 04:54 152 5 gusting 10 31.1
2017-Dec-11 04:39 204 5 gusting 8 31.1
2017-Dec-11 04:23 163 4 gusting 9 31.1
2017-Dec-11 04:08 139 5 gusting 8 31.1
2017-Dec-11 03:53 149 4 gusting 7 31.1
2017-Dec-11 03:38 186 5 gusting 9 31.1
2017-Dec-11 03:24 177 4 gusting 7 31.1
2017-Dec-11 03:08 124 4 gusting 8 30.6
2017-Dec-11 02:53 155 4 gusting 8 30.0
2017-Dec-11 02:38 170 3 gusting 6 30.6
2017-Dec-11 02:23 144 3 gusting 7 29.4
2017-Dec-11 02:08 177 2 gusting 7 29.4
2017-Dec-11 01:53 152 3 gusting 7 28.9
2017-Dec-11 01:38 176 4 gusting 8 27.8
2017-Dec-11 01:23 184 2 gusting 6 27.8
2017-Dec-11 01:08 189 4 gusting 7 27.2
2017-Dec-11 00:53 204 3 gusting 7 27.2
2017-Dec-11 00:38 179 3 gusting 6 26.1
2017-Dec-11 00:23 191 2 gusting 5 26.7
2017-Dec-11 00:08 174 1 gusting 4 26.1
2017-Dec-10 23:53 204 0 gusting 6 25.6
2017-Dec-10 23:38 180 2 gusting 5 25.0
2017-Dec-10 23:23 197 2 gusting 6 24.4
2017-Dec-10 23:08 191 3 gusting 6 23.9
2017-Dec-10 22:53 185 3 gusting 5 23.3
2017-Dec-10 22:38 176 3 gusting 6 22.8
2017-Dec-10 22:23 253 1 gusting 6 22.2
2017-Dec-10 22:07 204 2 gusting 6 21.7
2017-Dec-10 21:52 233 1 gusting 6 21.1
2017-Dec-10 21:37 239 3 gusting 6 20.6
2017-Dec-10 21:23 223 3 gusting 5 20.0
2017-Dec-10 21:07 231 1 gusting 5 18.9
2017-Dec-10 20:52 247 1 gusting 4 18.3
2017-Dec-10 20:37 225 0 gusting 1 17.8
2017-Dec-10 20:22 221 17.2
2017-Dec-10 20:08 221 16.1
2017-Dec-10 19:53 221 16.1
2017-Dec-10 19:38 221 15.6
2017-Dec-10 19:22 221 16.1
2017-Dec-10 19:07 221 16.7
2017-Dec-10 18:52 222 0 gusting 1 16.1
2017-Dec-10 18:37 222 16.1
2017-Dec-10 18:22 222 16.1
2017-Dec-10 18:07 222 16.7
2017-Dec-10 17:52 222 16.7
2017-Dec-10 17:37 221 0 gusting 2 16.7
2017-Dec-10 17:22 221 16.1
2017-Dec-10 17:07 221 17.8
2017-Dec-10 16:52 221 17.8
2017-Dec-10 16:37 221 17.8
2017-Dec-10 16:22 221 0 gusting 3 19.4
2017-Dec-10 16:07 224 2 gusting 6 19.4
2017-Dec-10 15:52 209 3 gusting 6 19.4
2017-Dec-10 15:37 218 1 gusting 6 19.4
2017-Dec-10 15:22 236 2 gusting 5 19.4
2017-Dec-10 15:07 223 2 gusting 5 20.0
2017-Dec-10 14:52 209 2 gusting 6 20.0
2017-Dec-10 14:37 199 3 gusting 7 20.6
2017-Dec-10 14:22 230 3 gusting 8 20.6
2017-Dec-10 14:07 214 4 gusting 7 20.6
2017-Dec-10 13:52 199 1 gusting 6 20.0
2017-Dec-10 13:37 197 2 gusting 6 20.6
2017-Dec-10 13:22 204 2 gusting 5 20.6
2017-Dec-10 13:07 223 2 gusting 7 21.1
2017-Dec-10 12:51 204 1 gusting 5 21.1
2017-Dec-10 12:37 220 2 gusting 6 21.7
2017-Dec-10 12:21 209 3 gusting 6 21.7
2017-Dec-10 12:07 214 2 gusting 6 22.2
2017-Dec-10 11:52 182 4 gusting 8 22.8
2017-Dec-10 11:36 189 4 gusting 9 22.8
2017-Dec-10 11:22 220 5 gusting 8 22.8
2017-Dec-10 11:06 204 4 gusting 7 22.8
2017-Dec-10 10:51 231 4 gusting 7 23.3
2017-Dec-10 10:36 214 4 gusting 6 23.3
2017-Dec-10 10:21 220 2 gusting 7 23.3
2017-Dec-10 10:06 198 4 gusting 7 23.9